Port Isabel, TX

12:26 PM CST on November 20, 2017 (GMT -0600)
Port Isabel-Cameron County

Weather History for KPIL - December, 2011

Change the Weather History Date:

Wednesday, December 7, 2011

  Actual Average (KBRO) Record (KBRO)
Temperature  
Mean Temperature 44 °F -  
Max Temperature 54 °F 71 °F 91 °F (1996)
Min Temperature 35 °F 52 °F 29 °F (1950)
Degree Days  
Heating Degree Days 20    
Moisture  
Dew Point 30 °F    
Average Humidity 54    
Maximum Humidity 76    
Minimum Humidity 30    
Precipitation  
Precipitation 0.00 in - - ()
Sea Level Pressure  
Sea Level Pressure 30.39 in    
Wind  
Wind Speed 10 mph (NNW)    
Max Wind Speed 16 mph    
Max Gust Speed 21 mph    
Visibility 10 miles    
Events      
Averages and records for this station are not official NWS values.
T = Trace of Precipitation, MM = Missing Value Source: NWS Daily Summary

Daily Weather History Graph

Daily Weather History Graph

Search for Another Location

Airport or City:

Trip Planner

Search our weather history database for the weather conditions in past years. The results will help you decide how hot, cold, wet, or windy it might be!

Date:

Astronomy

Dec. 07, 2011 Rise Set
Actual Time 7:03 AM CST 5:37 PM CST
Civil Twilight 6:38 AM CST 6:02 PM CST
Nautical Twilight 6:10 AM CST 6:31 PM CST
Astronomical Twilight 5:41 AM CST 6:59 PM CST
Moon 3:34 PM CST (12/7) 4:27 AM CST (12/7)
Length of Visible Light 11h 24m
Length of Day
10h 33m
Waxing Gibbous, 92% of the Moon is Illuminated
Dec 7
Waxing Gibbous
Dec 10
Full
Dec 17
Last Quarter
Dec 24
New
Jan 1
First Quarter

Hourly Weather History & Observations

Time (CST) Temp. Windchill Dew Point Humidity Pressure Visibility Wind Dir Wind Speed Gust Speed Precip Events Conditions
12:53 AM 44.1 °F 40.1 °F 34.0 °F 68% 30.38 in 10.0 mi NNW 6.9 mph - N/A   Clear
2:53 AM 42.1 °F 34.9 °F 34.0 °F 73% 30.40 in 10.0 mi NW 13.8 mph - N/A   Clear
3:53 AM 39.9 °F 33.4 °F 32.0 °F 73% 30.40 in 10.0 mi NW 10.4 mph - N/A   Clear
4:53 AM 37.9 °F 32.1 °F 30.9 °F 76% 30.41 in 10.0 mi NW 8.1 mph - N/A   Clear
5:53 AM 37.0 °F 31.0 °F 28.9 °F 73% 30.43 in 10.0 mi NW 8.1 mph - N/A   Clear
7:53 AM 35.1 °F 28.6 °F 28.0 °F 76% 30.46 in 8.0 mi WNW 8.1 mph - N/A   Clear
8:53 AM 44.1 °F 37.7 °F 28.9 °F 55% 30.48 in 10.0 mi NNW 12.7 mph - N/A   Clear
9:53 AM 50.0 °F - 25.0 °F 38% 30.49 in 10.0 mi North 13.8 mph - N/A   Clear
10:53 AM 52.0 °F - 25.0 °F 35% 30.47 in 10.0 mi North 16.1 mph - N/A   Clear
11:53 AM 52.0 °F - 25.0 °F 35% 30.45 in 10.0 mi North 16.1 mph - N/A   Clear
12:53 PM 54.0 °F - 26.1 °F 34% 30.42 in 10.0 mi North 12.7 mph 19.6 mph N/A   Clear
1:53 PM 54.0 °F - 23.0 °F 30% 30.37 in 10.0 mi North 15.0 mph - N/A   Clear
2:53 PM 54.0 °F - 28.0 °F 37% 30.34 in 10.0 mi North 15.0 mph 20.7 mph N/A   Clear
3:53 PM 53.1 °F - 30.9 °F 43% 30.33 in 10.0 mi NNE 13.8 mph - N/A   Clear
4:53 PM 51.1 °F - 32.0 °F 48% 30.33 in 9.0 mi North 13.8 mph - N/A   Clear
6:53 PM 46.9 °F - 32.0 °F 56% 30.34 in 10.0 mi NNE 6.9 mph - N/A   Clear
7:53 PM 45.0 °F 41.8 °F 32.0 °F 60% 30.34 in 9.0 mi NNE 5.8 mph - N/A   Clear
8:53 PM 46.9 °F - 32.0 °F 56% 30.35 in 9.0 mi NW 5.8 mph - N/A   Clear
9:53 PM 46.9 °F - 32.0 °F 56% 30.35 in 10.0 mi NW 5.8 mph - N/A   Clear
10:53 PM 46.0 °F 43.9 °F 33.1 °F 61% 30.34 in 10.0 mi WNW 4.6 mph - N/A   Clear
11:53 PM 45.0 °F 41.2 °F 30.9 °F 58% 30.32 in 10.0 mi WNW 6.9 mph - N/A   Clear